[Iaude] MPEC U41: 2023 TY19 [a=2.40,e=0.57,i=10.6,H=26.4]

mpec at marsden.cfa.harvard.edu mpec at marsden.cfa.harvard.edu
Tue Oct 17 02:31:43 EDT 2023


M.P.E.C. 2023-U41                              Issued 2023 October 17, 06:30 UT

     The Minor Planet Electronic Circulars contain information on unusual
         minor planets, routine data on comets and natural satellites,
         and occasional editorial announcements.  They are published
    on behalf of Division F of the International Astronomical Union by the
          Minor Planet Center, Smithsonian Astrophysical Observatory,
                          Cambridge, MA 02138, U.S.A.
			  
             Prepared using the Tamkin Foundation Computer Network

                              MPC at CFA.HARVARD.EDU
            URL https://www.minorplanetcenter.net/    ISSN 1523-6714

                                   2023 TY19                                    


Observations:
     K23T19Y 1C2023 10 14.20613 22 47 00.69 +04 16 37.9          21.1 GVEU041G96
     K23T19Y 1C2023 10 14.21751 22 47 12.27 +04 14 52.0          21.5 GVEU041G96
     K23T19Y*1C2023 10 15.18207023 05 52.422+01 34 45.26         21.73GVEU041G96
     K23T19Y 1C2023 10 15.18729823 05 58.477+01 33 49.32         20.81GVEU041G96
     K23T19Y 1C2023 10 15.19250323 06 04.608+01 32 54.78         20.96GVEU041G96
     K23T19Y 1C2023 10 15.19770823 06 10.667+01 31 59.41         20.32GVEU041G96
     K23T19Y  C2023 10 15.21526023 06 30.413+01 28 47.65         20.5 GVEU041H01
     K23T19Y  C2023 10 15.21920123 06 35.020+01 28 05.57         20.8 GVEU041H01
     K23T19Y  C2023 10 15.22869623 06 46.139+01 26 24.06         20.1 GVEU041H01
     K23T19Y  C2023 10 15.23558423 06 54.231+01 25 10.42         20.6 GVEU041H01
     K23T19Y KC2023 10 16.10533523 26 04.35 -01 18 27.0          20.6 GXEU041858
     K23T19Y KC2023 10 16.11385123 26 15.61 -01 20 08.4          20.4 GXEU041858
     K23T19Y KC2023 10 16.12268623 26 27.37 -01 21 54.0          20.2 GXEU041858
     K23T19Y KC2023 10 17.13196823 51 06.82 -04 51 06.9          20.7 GXEU041858
     K23T19Y KC2023 10 17.14051123 51 19.45 -04 52 58.1          20.4 GXEU041858
     K23T19Y KC2023 10 17.15016823 51 33.74 -04 55 03.7          21.0 GXEU041858

Observer details:
858 Tebbutt Observatory, Edgewood.  Observer F. B. Zoltowski.  0.51-m f/8.1
    Schmidt-Cassegrain + CCD.
G96 Mt. Lemmon Survey.  Observer D. C. Fuls.  Measurers B. Gray, D. Rankin, F.
    C. Shelly, E. C. Beshore, D. Fay, J. B. Fazekas, D. C. Fuls, A. R. Gibbs,
    A. D. Grauer, H. Groeller, J. K. Hogan, R. A. Kowalski, S. M. Larson, G.
    J. Leonard, R. L. Seaman, K. W. Wierzchos.  1.5-m reflector + 10K CCD.
H01 Magdalena Ridge Observatory, Socorro.  Observers W. H. Ryan, E. V. Ryan.
    Measurer W. H. Ryan.  2.4-m f/8.9 Ritchey-Chretien + CCD.

Orbital elements:
2023 TY19                                                Earth MOID = 0.0346 AU
Epoch 2023 Sept. 13.0 TT = JDT 2460200.5                Veres                   
M 349.37044              (2000.0)            P               Q                  
n   0.26548244     Peri.  187.70533     +0.87411293     -0.48102886             
a   2.3976117      Node   201.45332     +0.45488863     +0.85933842             
e   0.5707586      Incl.   10.61346     +0.17030246     +0.17363387             
P   3.71           H   26.47          G   0.15           U   9                  
Residuals in seconds of arc
231014 G96  0.1+  0.3+    231015 H01  0.1-  0.2+    231016 858  0.6+  0.0
231014 G96  0.0   0.2+    231015 H01  0.1-  0.2+    231017 858  0.2+  0.8+
231015 G96  0.1-  0.2-    231015 H01  0.1-  0.2+    231017 858  0.0   0.6+
231015 G96  0.5-  0.6-    231015 H01  0.0   0.3+    231017 858  0.2+  0.5+
231015 G96  0.5+  0.2+    231016 858  0.4-  1.0+
231015 G96  0.5+  0.2+    231016 858  0.5-  0.7+

Ephemeris:
2023 TY19                a,e,i = 2.40, 0.57, 11                  q = 1.0292
Date    TT    R. A. (2000) Decl.     Delta      r    Elong.  Phase     V
2023 09 17    20 34 25.4 +21 52 07   0.1763  1.1254   129.3    43.7    24.6
...
2023 10 02    20 59 25.6 +18 34 32   0.1003  1.0635   126.3    49.4    23.5
...
2023 10 10    21 49 31.2 +12 15 02   0.06277 1.0426   132.9    44.6    22.3
...
2023 10 16    23 23 31.8 -00 55 35   0.04161 1.0331   149.1    29.7    20.9
2023 10 17    23 47 36.8 -04 20 19   0.03955 1.0320   152.3    26.7    20.7
2023 10 18    00 14 13.8 -07 59 45   0.03814 1.0312   154.6    24.5    20.6
...
2023 10 24    03 05 49.2 -25 07 02   0.04479 1.0292   139.2    39.2    21.3
...
2023 11 01    05 05 45.4 -28 25 19   0.07692 1.0354   121.9    54.5    23.0
...
2023 11 16    06 03 40.9 -26 07 46   0.1499  1.0733   120.6    52.5    24.4

M. P. C. Staff               (C) Copyright 2023 MPC           M.P.E.C. 2023-U41





More information about the Iaude mailing list